Time,TemperatureF,DewpointF,PressureIn,WindDirection,WindDirectionDegrees,WindSpeedMPH,WindSpeedGustMPH,Humidity,HourlyPrecipIn,Conditions,Clouds,dailyrainin,SoftwareType,DateUTC
2013-09-04 00:01:00,60.6,53.8,30.04,North,0,0.0,0.0,78,0.00,,,0.02,WUHU21623XXSP,2013-09-04 04:01:00,
2013-09-04 00:02:00,60.6,53.8,30.04,North,0,0.0,0.0,78,0.00,,,0.00,WUHU21623XXSP,2013-09-04 04:02:00,
2013-09-04 00:07:00,60.4,53.6,30.04,North,0,0.0,0.0,78,0.00,,,0.00,WUHU21623XXSP,2013-09-04 04:07:00,
2013-09-04 00:12:00,60.4,54.0,30.04,North,0,0.0,0.0,79,0.00,,,0.00,WUHU21623XXSP,2013-09-04 04:12:00,
2013-09-04 00:17:00,60.3,53.8,30.04,North,0,0.0,0.0,79,0.00,,,0.00,WUHU21623XXSP,2013-09-04 04:17:00,
2013-09-04 00:22:00,60.1,53.6,30.04,North,0,0.0,0.0,79,0.00,,,0.00,WUHU21623XXSP,2013-09-04 04:22:00,
2013-09-04 00:27:00,59.9,53.8,30.04,North,0,0.0,0.0,80,0.00,,,0.00,WUHU21623XXSP,2013-09-04 04:27:00,
2013-09-04 00:32:00,59.7,53.6,30.04,North,0,0.0,0.0,80,0.00,,,0.00,WUHU21623XXSP,2013-09-04 04:32:00,
2013-09-04 00:37:00,59.5,53.4,30.04,North,0,0.0,0.0,80,0.00,,,0.00,WUHU21623XXSP,2013-09-04 04:37:00,
2013-09-04 00:42:00,59.5,53.4,30.04,North,0,0.0,0.0,80,0.00,,,0.00,WUHU21623XXSP,2013-09-04 04:42:00,
2013-09-04 00:47:00,59.4,53.4,30.04,North,0,0.0,0.0,80,0.00,,,0.00,WUHU21623XXSP,2013-09-04 04:47:00,
2013-09-04 00:52:00,59.2,53.1,30.04,North,0,0.0,0.0,80,0.00,,,0.00,WUHU21623XXSP,2013-09-04 04:52:00,
2013-09-04 00:57:00,59.0,53.2,30.04,North,0,0.0,0.0,81,0.00,,,0.00,WUHU21623XXSP,2013-09-04 04:57:00,
2013-09-04 01:02:00,58.8,53.0,30.04,North,0,0.0,0.0,81,0.00,,,0.00,WUHU21623XXSP,2013-09-04 05:02:00,
2013-09-04 01:07:00,58.8,53.0,30.04,North,0,0.0,0.0,81,0.00,,,0.00,WUHU21623XXSP,2013-09-04 05:07:00,
2013-09-04 01:12:00,58.8,53.3,30.04,North,0,0.0,0.0,82,0.00,,,0.00,WUHU21623XXSP,2013-09-04 05:12:00,
2013-09-04 01:17:00,58.6,53.2,30.04,North,0,0.0,0.0,82,0.00,,,0.00,WUHU21623XXSP,2013-09-04 05:17:00,
2013-09-04 01:22:00,58.6,53.2,30.04,North,0,0.0,0.0,82,0.00,,,0.00,WUHU21623XXSP,2013-09-04 05:22:00,
2013-09-04 01:27:00,58.5,53.0,30.04,North,0,0.0,0.0,82,0.00,,,0.00,WUHU21623XXSP,2013-09-04 05:27:00,
2013-09-04 01:32:00,58.3,52.8,30.04,North,0,0.0,0.0,82,0.00,,,0.00,WUHU21623XXSP,2013-09-04 05:32:00,
2013-09-04 01:37:00,58.3,52.8,30.04,North,0,0.0,0.0,82,0.00,,,0.00,WUHU21623XXSP,2013-09-04 05:37:00,
2013-09-04 01:42:00,57.9,52.8,30.04,North,0,0.0,0.0,83,0.00,,,0.00,WUHU21623XXSP,2013-09-04 05:42:00,
2013-09-04 01:47:00,57.9,52.8,30.04,North,0,0.0,0.0,83,0.00,,,0.00,WUHU21623XXSP,2013-09-04 05:47:00,
2013-09-04 01:52:00,57.7,52.6,30.04,North,0,0.0,0.0,83,0.00,,,0.00,WUHU21623XXSP,2013-09-04 05:52:00,
2013-09-04 01:57:00,57.6,52.7,30.05,North,0,0.0,0.0,84,0.00,,,0.00,WUHU21623XXSP,2013-09-04 05:57:00,
2013-09-04 02:02:00,57.4,52.6,30.04,North,0,0.0,0.0,84,0.00,,,0.00,WUHU21623XXSP,2013-09-04 06:02:00,
2013-09-04 02:07:00,57.0,52.2,30.05,North,0,0.0,0.0,84,0.00,,,0.00,WUHU21623XXSP,2013-09-04 06:07:00,
2013-09-04 02:12:00,57.0,52.2,30.05,North,0,0.0,0.0,84,0.00,,,0.00,WUHU21623XXSP,2013-09-04 06:12:00,
2013-09-04 02:17:00,56.8,52.0,30.05,North,0,0.0,0.0,84,0.00,,,0.00,WUHU21623XXSP,2013-09-04 06:17:00,
2013-09-04 02:22:00,56.8,52.0,30.04,North,0,0.0,0.0,84,0.00,,,0.00,WUHU21623XXSP,2013-09-04 06:22:00,
2013-09-04 02:27:00,56.7,51.8,30.05,North,0,0.0,0.0,84,0.00,,,0.00,WUHU21623XXSP,2013-09-04 06:27:00,
2013-09-04 02:32:00,56.5,51.7,30.05,North,0,0.0,0.0,84,0.00,,,0.00,WUHU21623XXSP,2013-09-04 06:32:00,
2013-09-04 02:37:00,56.5,52.0,30.04,North,0,0.0,0.0,85,0.00,,,0.00,WUHU21623XXSP,2013-09-04 06:37:00,
2013-09-04 02:42:00,56.5,52.0,30.05,North,0,0.0,0.0,85,0.00,,,0.00,WUHU21623XXSP,2013-09-04 06:42:00,
2013-09-04 02:47:00,56.3,51.8,30.05,North,0,0.0,0.0,85,0.00,,,0.00,WUHU21623XXSP,2013-09-04 06:47:00,
2013-09-04 02:52:00,56.3,51.8,30.05,North,0,0.0,0.0,85,0.00,,,0.00,WUHU21623XXSP,2013-09-04 06:52:00,
2013-09-04 02:57:00,56.1,51.6,30.04,North,0,0.0,0.0,85,0.00,,,0.00,WUHU21623XXSP,2013-09-04 06:57:00,
2013-09-04 03:02:00,56.1,51.6,30.04,North,0,0.0,0.0,85,0.00,,,0.00,WUHU21623XXSP,2013-09-04 07:02:00,
2013-09-04 03:07:00,56.1,51.6,30.04,North,0,0.0,0.0,85,0.00,,,0.00,WUHU21623XXSP,2013-09-04 07:07:00,
2013-09-04 03:12:00,56.1,51.6,30.04,North,0,0.0,0.0,85,0.00,,,0.00,WUHU21623XXSP,2013-09-04 07:12:00,
2013-09-04 03:17:00,56.1,51.6,30.04,North,0,0.0,0.0,85,0.00,,,0.00,WUHU21623XXSP,2013-09-04 07:17:00,
2013-09-04 03:22:00,56.1,51.6,30.04,North,0,0.0,0.0,85,0.00,,,0.00,WUHU21623XXSP,2013-09-04 07:22:00,
2013-09-04 03:27:00,56.1,51.9,30.04,North,0,0.0,0.0,86,0.00,,,0.00,WUHU21623XXSP,2013-09-04 07:27:00,
2013-09-04 03:32:00,55.9,51.8,30.04,North,0,0.0,0.0,86,0.00,,,0.00,WUHU21623XXSP,2013-09-04 07:32:00,
2013-09-04 03:37:00,55.9,51.8,30.04,North,0,0.0,0.0,86,0.00,,,0.00,WUHU21623XXSP,2013-09-04 07:37:00,
2013-09-04 03:42:00,55.9,51.8,30.04,North,0,0.0,0.0,86,0.00,,,0.00,WUHU21623XXSP,2013-09-04 07:42:00,
2013-09-04 03:47:00,55.9,51.8,30.04,North,0,0.0,0.0,86,0.00,,,0.00,WUHU21623XXSP,2013-09-04 07:47:00,
2013-09-04 03:52:00,55.9,51.8,30.04,North,0,0.0,0.0,86,0.00,,,0.00,WUHU21623XXSP,2013-09-04 07:52:00,
2013-09-04 03:57:00,55.9,51.8,30.04,North,0,0.0,0.0,86,0.00,,,0.00,WUHU21623XXSP,2013-09-04 07:57:00,
2013-09-04 04:02:00,55.8,51.9,30.04,North,0,0.0,0.0,87,0.00,,,0.00,WUHU21623XXSP,2013-09-04 08:02:00,
2013-09-04 04:07:00,55.8,51.9,30.04,North,0,0.0,0.0,87,0.00,,,0.00,WUHU21623XXSP,2013-09-04 08:07:00,
2013-09-04 04:12:00,55.6,51.9,30.04,North,0,0.0,0.0,87,0.00,,,0.00,WUHU21623XXSP,2013-09-04 08:12:00,
2013-09-04 04:17:00,55.6,51.7,30.04,North,0,0.0,0.0,87,0.00,,,0.00,WUHU21623XXSP,2013-09-04 08:17:00,
2013-09-04 04:22:00,55.6,51.7,30.04,North,0,0.0,0.0,87,0.00,,,0.00,WUHU21623XXSP,2013-09-04 08:22:00,
2013-09-04 04:27:00,55.6,51.7,30.04,North,0,0.0,0.0,87,0.00,,,0.00,WUHU21623XXSP,2013-09-04 08:27:00,
2013-09-04 04:32:00,55.4,51.5,30.04,North,0,0.0,0.0,87,0.00,,,0.00,WUHU21623XXSP,2013-09-04 08:32:00,
2013-09-04 04:37:00,55.4,51.5,30.04,North,0,0.0,0.0,88,0.00,,,0.00,WUHU21623XXSP,2013-09-04 08:37:00,
2013-09-04 04:42:00,55.2,51.7,30.05,North,0,0.0,0.0,88,0.00,,,0.00,WUHU21623XXSP,2013-09-04 08:42:00,
2013-09-04 04:47:00,55.2,51.7,30.05,North,0,0.0,0.0,88,0.00,,,0.00,WUHU21623XXSP,2013-09-04 08:47:00,
2013-09-04 04:52:00,55.2,51.7,30.05,North,0,0.0,0.0,88,0.00,,,0.00,WUHU21623XXSP,2013-09-04 08:52:00,
2013-09-04 04:57:00,55.2,51.7,30.05,North,0,0.0,0.0,88,0.00,,,0.00,WUHU21623XXSP,2013-09-04 08:57:00,
2013-09-04 05:02:00,55.2,51.7,30.05,North,0,0.0,0.0,88,0.00,,,0.00,WUHU21623XXSP,2013-09-04 09:02:00,
2013-09-04 05:07:00,55.2,51.7,30.05,North,0,0.0,0.0,88,0.00,,,0.00,WUHU21623XXSP,2013-09-04 09:07:00,
2013-09-04 05:12:00,55.2,51.7,30.05,North,0,0.0,0.0,88,0.00,,,0.00,WUHU21623XXSP,2013-09-04 09:12:00,
2013-09-04 05:17:00,55.2,51.7,30.05,North,0,0.0,0.0,88,0.00,,,0.00,WUHU21623XXSP,2013-09-04 09:17:00,
2013-09-04 05:22:00,55.0,51.5,30.05,North,0,0.0,0.0,88,0.00,,,0.00,WUHU21623XXSP,2013-09-04 09:22:00,
2013-09-04 05:27:00,55.0,51.5,30.05,North,0,0.0,0.0,88,0.00,,,0.00,WUHU21623XXSP,2013-09-04 09:27:00,
2013-09-04 05:32:00,55.0,51.5,30.05,North,0,0.0,0.0,88,0.00,,,0.00,WUHU21623XXSP,2013-09-04 09:32:00,
2013-09-04 05:37:00,55.0,51.5,30.06,North,0,0.0,0.0,88,0.00,,,0.00,WUHU21623XXSP,2013-09-04 09:37:00,
2013-09-04 05:42:00,54.9,51.3,30.06,North,0,0.0,0.0,88,0.00,,,0.00,WUHU21623XXSP,2013-09-04 09:42:00,
2013-09-04 05:47:00,54.9,51.8,30.06,North,0,0.0,0.0,89,0.00,,,0.00,WUHU21623XXSP,2013-09-04 09:47:00,
2013-09-04 05:52:00,54.9,51.7,30.06,North,0,0.0,0.0,89,0.00,,,0.00,WUHU21623XXSP,2013-09-04 09:52:00,
2013-09-04 05:57:00,54.9,51.7,30.06,North,0,0.0,0.0,89,0.00,,,0.00,WUHU21623XXSP,2013-09-04 09:57:00,
2013-09-04 06:02:00,54.9,51.7,30.06,North,0,0.0,0.0,89,0.00,,,0.00,WUHU21623XXSP,2013-09-04 10:02:00,
2013-09-04 06:07:00,54.9,51.7,30.06,North,0,0.0,0.0,89,0.00,,,0.00,WUHU21623XXSP,2013-09-04 10:07:00,
2013-09-04 06:12:00,54.9,51.7,30.06,North,0,0.0,0.0,89,0.00,,,0.00,WUHU21623XXSP,2013-09-04 10:12:00,
2013-09-04 06:17:00,54.9,51.7,30.06,North,0,0.0,0.0,89,0.00,,,0.00,WUHU21623XXSP,2013-09-04 10:17:00,
2013-09-04 06:22:00,54.9,51.7,30.06,North,0,0.0,0.0,89,0.00,,,0.00,WUHU21623XXSP,2013-09-04 10:22:00,
2013-09-04 06:27:00,54.9,51.7,30.05,North,0,0.0,0.0,89,0.00,,,0.00,WUHU21623XXSP,2013-09-04 10:27:00,
2013-09-04 06:32:00,54.9,52.0,30.05,SW,225,0.0,0.0,90,0.00,,,0.00,WUHU21623XXSP,2013-09-04 10:32:00,
2013-09-04 06:37:00,55.0,52.2,30.06,SW,225,0.0,0.0,90,0.00,,,0.00,WUHU21623XXSP,2013-09-04 10:37:00,
2013-09-04 06:42:00,55.0,52.2,30.06,SW,225,0.0,0.0,90,0.00,,,0.00,WUHU21623XXSP,2013-09-04 10:42:00,
2013-09-04 06:47:00,55.0,52.2,30.06,SW,225,0.0,0.0,90,0.00,,,0.00,WUHU21623XXSP,2013-09-04 10:47:00,
2013-09-04 06:52:00,55.0,52.2,30.07,SW,225,0.0,0.0,90,0.00,,,0.00,WUHU21623XXSP,2013-09-04 10:52:00,
2013-09-04 06:57:00,55.0,52.2,30.07,SW,225,0.0,0.0,90,0.00,,,0.00,WUHU21623XXSP,2013-09-04 10:57:00,
2013-09-04 07:02:00,55.2,52.3,30.07,SW,225,0.0,0.0,90,0.00,,,0.00,WUHU21623XXSP,2013-09-04 11:02:00,
2013-09-04 07:07:00,55.0,52.2,30.07,SW,225,0.0,0.0,90,0.00,,,0.00,WUHU21623XXSP,2013-09-04 11:07:00,
2013-09-04 07:12:00,55.2,52.3,30.07,SW,225,0.0,0.0,90,0.00,,,0.00,WUHU21623XXSP,2013-09-04 11:12:00,
2013-09-04 07:17:00,55.2,52.3,30.07,SW,225,0.0,0.0,90,0.00,,,0.00,WUHU21623XXSP,2013-09-04 11:17:00,
2013-09-04 07:22:00,55.2,52.3,30.08,SW,225,0.0,0.0,90,0.00,,,0.00,WUHU21623XXSP,2013-09-04 11:22:00,
2013-09-04 07:27:00,55.2,52.3,30.08,SW,225,0.0,0.0,90,0.00,,,0.00,WUHU21623XXSP,2013-09-04 11:27:00,
2013-09-04 07:32:00,55.2,52.3,30.08,SW,225,0.0,0.0,90,0.00,,,0.00,WUHU21623XXSP,2013-09-04 11:32:00,
2013-09-04 07:37:00,55.4,52.5,30.08,SW,225,0.0,0.0,90,0.00,,,0.00,WUHU21623XXSP,2013-09-04 11:37:00,
2013-09-04 07:42:00,55.4,52.5,30.08,SW,225,0.0,0.0,90,0.00,,,0.00,WUHU21623XXSP,2013-09-04 11:42:00,
2013-09-04 07:47:00,55.6,52.7,30.08,SW,225,0.0,0.0,90,0.00,,,0.00,WUHU21623XXSP,2013-09-04 11:47:00,
2013-09-04 07:52:00,55.8,52.7,30.08,SW,225,0.0,0.0,90,0.00,,,0.00,WUHU21623XXSP,2013-09-04 11:52:00,
2013-09-04 07:57:00,55.9,53.2,30.07,SSW,202,0.0,0.0,91,0.00,,,0.00,WUHU21623XXSP,2013-09-04 11:57:00,
2013-09-04 08:02:00,56.1,53.3,30.07,SSW,202,0.0,0.0,91,0.00,,,0.00,WUHU21623XXSP,2013-09-04 12:02:00,
2013-09-04 08:07:00,56.1,53.5,30.07,SSW,202,0.0,0.0,91,0.00,,,0.00,WUHU21623XXSP,2013-09-04 12:07:00,
2013-09-04 08:12:00,56.5,53.9,30.07,SSW,202,0.0,0.0,91,0.00,,,0.00,WUHU21623XXSP,2013-09-04 12:12:00,
2013-09-04 08:17:00,56.8,54.2,30.07,SSW,202,0.0,0.0,91,0.00,,,0.00,WUHU21623XXSP,2013-09-04 12:17:00,
2013-09-04 08:22:00,57.0,54.2,30.07,SSW,202,0.0,0.0,91,0.00,,,0.00,WUHU21623XXSP,2013-09-04 12:22:00,
2013-09-04 08:27:00,57.4,54.8,30.08,SSW,202,1.8,1.8,91,0.00,,,0.00,WUHU21623XXSP,2013-09-04 12:27:00,
2013-09-04 08:32:00,57.6,55.0,30.08,SSW,202,0.0,1.8,91,0.00,,,0.00,WUHU21623XXSP,2013-09-04 12:32:00,
2013-09-04 08:37:00,57.7,55.1,30.08,SSW,202,1.3,1.8,91,0.00,,,0.00,WUHU21623XXSP,2013-09-04 12:37:00,
2013-09-04 08:42:00,58.1,55.5,30.08,SSW,202,0.0,1.3,91,0.00,,,0.00,WUHU21623XXSP,2013-09-04 12:42:00,
2013-09-04 08:47:00,58.5,55.7,30.08,SSW,202,0.0,0.0,91,0.00,,,0.00,WUHU21623XXSP,2013-09-04 12:47:00,
2013-09-04 08:52:00,58.8,56.2,30.07,SSW,202,0.0,3.1,91,0.00,,,0.00,WUHU21623XXSP,2013-09-04 12:52:00,
2013-09-04 08:57:00,58.8,56.2,30.07,SSW,202,0.0,3.1,91,0.00,,,0.00,WUHU21623XXSP,2013-09-04 12:57:00,
2013-09-04 09:02:00,59.2,56.6,30.08,SSW,202,2.0,2.2,91,0.00,,,0.00,WUHU21623XXSP,2013-09-04 13:02:00,
2013-09-04 09:07:00,59.7,57.1,30.07,SW,225,0.0,2.0,91,0.00,,,0.00,WUHU21623XXSP,2013-09-04 13:07:00,
2013-09-04 09:12:00,60.1,57.5,30.06,SSW,202,0.7,0.7,91,0.00,,,0.00,WUHU21623XXSP,2013-09-04 13:12:00,
2013-09-04 09:17:00,60.3,57.7,30.07,SSW,202,0.0,0.7,91,0.00,,,0.00,WUHU21623XXSP,2013-09-04 13:17:00,
2013-09-04 09:22:00,60.6,58.0,30.07,SW,225,0.0,0.0,91,0.00,,,0.00,WUHU21623XXSP,2013-09-04 13:22:00,
2013-09-04 09:27:00,61.0,58.4,30.07,SW,225,0.0,0.0,91,0.00,,,0.00,WUHU21623XXSP,2013-09-04 13:27:00,
2013-09-04 09:32:00,61.3,58.6,30.07,SW,225,2.0,2.0,91,0.00,,,0.00,WUHU21623XXSP,2013-09-04 13:32:00,
2013-09-04 09:37:00,61.7,59.1,30.07,SW,225,0.0,2.0,91,0.00,,,0.00,WUHU21623XXSP,2013-09-04 13:37:00,
2013-09-04 09:42:00,61.9,59.3,30.07,SSW,202,0.0,1.3,91,0.00,,,0.00,WUHU21623XXSP,2013-09-04 13:42:00,
2013-09-04 09:47:00,62.4,59.8,30.07,SSW,202,0.0,1.3,91,0.00,,,0.00,WUHU21623XXSP,2013-09-04 13:47:00,
2013-09-04 09:52:00,62.8,60.2,30.07,SSW,202,0.4,0.4,91,0.00,,,0.00,WUHU21623XXSP,2013-09-04 13:52:00,
2013-09-04 09:57:00,63.0,60.4,30.06,SSW,202,0.0,1.8,91,0.00,,,0.00,WUHU21623XXSP,2013-09-04 13:57:00,
2013-09-04 10:02:00,63.5,60.9,30.07,SW,225,0.7,1.8,91,0.00,,,0.00,WUHU21623XXSP,2013-09-04 14:02:00,
2013-09-04 10:07:00,63.7,60.8,30.07,SW,225,0.0,0.7,90,0.00,,,0.00,WUHU21623XXSP,2013-09-04 14:07:00,
2013-09-04 10:12:00,64.2,61.3,30.07,SW,225,0.7,2.5,90,0.00,,,0.00,WUHU21623XXSP,2013-09-04 14:12:00,
2013-09-04 10:17:00,64.6,61.7,30.07,SSW,202,2.2,2.5,90,0.00,,,0.00,WUHU21623XXSP,2013-09-04 14:17:00,
2013-09-04 10:22:00,64.9,62.0,30.08,SW,225,3.4,3.4,90,0.00,,,0.00,WUHU21623XXSP,2013-09-04 14:22:00,
2013-09-04 10:27:00,65.5,62.2,30.08,SW,225,0.0,3.4,89,0.00,,,0.00,WUHU21623XXSP,2013-09-04 14:27:00,
2013-09-04 10:32:00,65.7,62.3,30.07,SSW,202,0.0,2.5,89,0.00,,,0.00,WUHU21623XXSP,2013-09-04 14:32:00,
2013-09-04 10:37:00,66.0,62.6,30.08,SSW,202,0.0,0.0,89,0.00,,,0.00,WUHU21623XXSP,2013-09-04 14:37:00,
2013-09-04 10:42:00,66.4,62.7,30.08,North,0,0.0,0.0,88,0.00,,,0.00,WUHU21623XXSP,2013-09-04 14:42:00,
2013-09-04 10:47:00,66.7,63.0,30.08,NNW,337,0.0,0.0,88,0.00,,,0.00,WUHU21623XXSP,2013-09-04 14:47:00,
2013-09-04 10:52:00,67.3,63.6,30.08,SSW,202,0.0,0.0,88,0.00,,,0.00,WUHU21623XXSP,2013-09-04 14:52:00,
2013-09-04 10:57:00,67.5,63.8,30.08,SW,225,0.0,0.0,88,0.00,,,0.00,WUHU21623XXSP,2013-09-04 14:57:00,
2013-09-04 11:02:00,67.8,63.8,30.08,NNW,337,0.0,0.0,87,0.00,,,0.00,WUHU21623XXSP,2013-09-04 15:02:00,
2013-09-04 11:07:00,68.4,64.1,30.08,SW,225,0.9,4.7,86,0.00,,,0.00,WUHU21623XXSP,2013-09-04 15:07:00,
2013-09-04 11:12:00,68.5,64.0,30.08,SSW,202,0.0,4.7,86,0.00,,,0.00,WUHU21623XXSP,2013-09-04 15:12:00,
2013-09-04 11:17:00,68.9,64.5,30.08,SSE,157,1.1,1.1,86,0.00,,,0.00,WUHU21623XXSP,2013-09-04 15:17:00,
2013-09-04 11:22:00,69.3,64.8,30.08,NNW,337,0.0,1.1,86,0.00,,,0.00,WUHU21623XXSP,2013-09-04 15:22:00,
2013-09-04 11:27:00,69.6,64.5,30.08,SW,225,1.3,1.3,84,0.00,,,0.00,WUHU21623XXSP,2013-09-04 15:27:00,
2013-09-04 11:32:00,70.0,64.9,30.08,SW,225,0.0,1.3,84,0.00,,,0.00,WUHU21623XXSP,2013-09-04 15:32:00,
2013-09-04 11:37:00,70.5,64.9,30.08,SSW,202,0.0,5.8,83,0.00,,,0.00,WUHU21623XXSP,2013-09-04 15:37:00,
2013-09-04 11:42:00,71.2,65.4,30.08,South,180,0.0,5.8,82,0.00,,,0.00,WUHU21623XXSP,2013-09-04 15:42:00,
2013-09-04 11:47:00,71.4,65.3,30.07,SSW,202,0.0,0.0,81,0.00,,,0.00,WUHU21623XXSP,2013-09-04 15:47:00,
2013-09-04 11:52:00,72.0,65.5,30.08,SW,225,0.0,0.0,80,0.00,,,0.00,WUHU21623XXSP,2013-09-04 15:52:00,
2013-09-04 11:57:00,72.3,65.8,30.08,SSW,202,0.0,0.0,80,0.00,,,0.00,WUHU21623XXSP,2013-09-04 15:57:00,
2013-09-04 12:02:00,72.7,65.8,30.08,SW,225,3.1,3.1,79,0.00,,,0.00,WUHU21623XXSP,2013-09-04 16:02:00,
2013-09-04 12:07:00,73.4,65.8,30.08,SSW,202,4.9,4.9,77,0.00,,,0.00,WUHU21623XXSP,2013-09-04 16:07:00,
2013-09-04 12:12:00,73.8,65.8,30.08,SW,225,0.0,4.9,76,0.00,,,0.00,WUHU21623XXSP,2013-09-04 16:12:00,
2013-09-04 12:17:00,73.9,65.2,30.08,SW,225,0.0,5.1,74,0.00,,,0.00,WUHU21623XXSP,2013-09-04 16:17:00,
2013-09-04 12:22:00,74.1,64.9,30.08,SW,225,0.0,5.1,73,0.00,,,0.00,WUHU21623XXSP,2013-09-04 16:22:00,
2013-09-04 12:27:00,74.5,65.3,30.08,SW,225,0.0,4.3,73,0.00,,,0.00,WUHU21623XXSP,2013-09-04 16:27:00,
2013-09-04 12:32:00,74.7,65.4,30.08,SSW,202,5.4,5.4,73,0.00,,,0.00,WUHU21623XXSP,2013-09-04 16:32:00,
2013-09-04 12:37:00,75.0,65.4,30.08,SSW,202,0.0,5.4,72,0.00,,,0.00,WUHU21623XXSP,2013-09-04 16:37:00,
2013-09-04 12:42:00,75.4,65.7,30.07,North,0,0.0,0.0,72,0.00,,,0.00,WUHU21623XXSP,2013-09-04 16:42:00,
2013-09-04 12:47:00,75.7,65.7,30.08,SW,225,2.5,2.5,71,0.00,,,0.00,WUHU21623XXSP,2013-09-04 16:47:00,
2013-09-04 12:52:00,75.9,65.5,30.07,SSW,202,0.0,2.5,70,0.00,,,0.00,WUHU21623XXSP,2013-09-04 16:52:00,
2013-09-04 12:57:00,76.5,65.1,30.08,SSW,202,1.8,1.8,68,0.00,,,0.00,WUHU21623XXSP,2013-09-04 16:57:00,
2013-09-04 13:02:00,76.6,64.8,30.08,SSW,202,4.0,4.0,67,0.00,,,0.00,WUHU21623XXSP,2013-09-04 17:02:00,
2013-09-04 13:07:00,76.6,64.4,30.07,SW,225,0.0,4.0,66,0.00,,,0.00,WUHU21623XXSP,2013-09-04 17:07:00,
2013-09-04 13:12:00,76.8,64.1,30.07,SW,225,0.0,4.0,65,0.00,,,0.00,WUHU21623XXSP,2013-09-04 17:12:00,
2013-09-04 13:17:00,76.8,64.1,30.07,SW,225,0.0,1.6,65,0.00,,,0.00,WUHU21623XXSP,2013-09-04 17:17:00,
2013-09-04 13:22:00,76.8,63.7,30.07,SSW,202,1.6,2.2,64,0.00,,,0.00,WUHU21623XXSP,2013-09-04 17:22:00,
2013-09-04 13:27:00,76.6,63.5,30.07,North,0,0.0,2.2,64,0.00,,,0.00,WUHU21623XXSP,2013-09-04 17:27:00,
2013-09-04 13:32:00,76.5,62.9,30.06,SSW,202,0.2,2.2,63,0.00,,,0.00,WUHU21623XXSP,2013-09-04 17:32:00,
2013-09-04 13:37:00,76.3,63.2,30.06,SW,225,0.0,3.8,64,0.00,,,0.00,WUHU21623XXSP,2013-09-04 17:37:00,
2013-09-04 13:42:00,75.9,62.4,30.06,SW,225,2.9,7.8,63,0.00,,,0.00,WUHU21623XXSP,2013-09-04 17:42:00,
2013-09-04 13:47:00,75.7,62.2,30.06,SW,225,0.0,7.8,63,0.00,,,0.00,WUHU21623XXSP,2013-09-04 17:47:00,
2013-09-04 13:52:00,75.4,62.3,30.06,SSW,202,0.0,6.0,64,0.00,,,0.00,WUHU21623XXSP,2013-09-04 17:52:00,
2013-09-04 13:57:00,75.4,62.3,30.06,SW,225,2.7,6.0,64,0.00,,,0.00,WUHU21623XXSP,2013-09-04 17:57:00,
2013-09-04 14:02:00,75.0,62.4,30.06,SSW,202,4.3,4.3,65,0.00,,,0.00,WUHU21623XXSP,2013-09-04 18:02:00,
2013-09-04 14:07:00,74.8,62.3,30.07,SW,225,0.0,4.3,65,0.00,,,0.00,WUHU21623XXSP,2013-09-04 18:07:00,
2013-09-04 14:12:00,74.8,62.7,30.07,SW,225,1.3,4.0,66,0.00,,,0.00,WUHU21623XXSP,2013-09-04 18:12:00,
2013-09-04 14:17:00,74.8,62.7,30.06,SSW,202,0.0,4.0,66,0.00,,,0.00,WUHU21623XXSP,2013-09-04 18:17:00,
2013-09-04 14:22:00,74.7,62.5,30.06,NNW,337,0.0,1.8,66,0.00,,,0.00,WUHU21623XXSP,2013-09-04 18:22:00,
2013-09-04 14:27:00,74.5,62.3,30.06,SSW,202,0.0,1.8,66,0.00,,,0.00,WUHU21623XXSP,2013-09-04 18:27:00,
2013-09-04 14:32:00,74.7,63.0,30.06,SW,225,1.8,1.8,67,0.00,,,0.00,WUHU21623XXSP,2013-09-04 18:32:00,
2013-09-04 14:37:00,74.5,62.3,30.06,SW,225,0.0,1.8,66,0.00,,,0.00,WUHU21623XXSP,2013-09-04 18:37:00,
2013-09-04 14:42:00,74.7,62.5,30.06,SW,225,3.6,3.6,66,0.00,,,0.00,WUHU21623XXSP,2013-09-04 18:42:00,
2013-09-04 14:47:00,74.8,62.7,30.06,SSW,202,2.7,3.6,66,0.00,,,0.00,WUHU21623XXSP,2013-09-04 18:47:00,
2013-09-04 14:52:00,74.8,62.7,30.06,SSW,202,0.0,2.7,66,0.00,,,0.00,WUHU21623XXSP,2013-09-04 18:52:00,
2013-09-04 14:57:00,74.8,62.7,30.05,SSW,202,2.7,2.7,66,0.00,,,0.00,WUHU21623XXSP,2013-09-04 18:57:00,
2013-09-04 15:02:00,74.8,62.3,30.05,SW,225,0.0,4.0,65,0.00,,,0.00,WUHU21623XXSP,2013-09-04 19:02:00,
2013-09-04 15:07:00,75.0,62.9,30.05,SW,225,0.0,4.0,66,0.00,,,0.00,WUHU21623XXSP,2013-09-04 19:07:00,
2013-09-04 15:12:00,75.0,62.4,30.05,SW,225,0.0,0.0,65,0.00,,,0.00,WUHU21623XXSP,2013-09-04 19:12:00,
2013-09-04 15:17:00,75.0,62.9,30.05,North,0,0.0,0.0,66,0.00,,,0.00,WUHU21623XXSP,2013-09-04 19:17:00,
2013-09-04 15:22:00,75.0,62.4,30.05,SW,225,0.0,3.8,65,0.00,,,0.00,WUHU21623XXSP,2013-09-04 19:22:00,
2013-09-04 15:27:00,75.0,62.4,30.04,SW,225,2.2,3.8,65,0.00,,,0.00,WUHU21623XXSP,2013-09-04 19:27:00,
2013-09-04 15:32:00,75.0,62.9,30.05,SSW,202,4.7,4.7,66,0.00,,,0.00,WUHU21623XXSP,2013-09-04 19:32:00,
2013-09-04 15:37:00,75.2,62.6,30.05,SSW,202,3.8,4.7,65,0.00,,,0.00,WUHU21623XXSP,2013-09-04 19:37:00,
2013-09-04 15:42:00,75.4,62.3,30.05,North,0,0.0,3.8,64,0.00,,,0.00,WUHU21623XXSP,2013-09-04 19:42:00,
2013-09-04 15:47:00,75.4,62.8,30.04,North,0,0.0,2.0,65,0.00,,,0.00,WUHU21623XXSP,2013-09-04 19:47:00,
2013-09-04 15:52:00,75.4,62.8,30.04,SW,225,0.0,0.0,65,0.00,,,0.00,WUHU21623XXSP,2013-09-04 19:52:00,
2013-09-04 15:57:00,75.6,63.4,30.04,SW,225,3.1,3.1,66,0.00,,,0.00,WUHU21623XXSP,2013-09-04 19:57:00,
2013-09-04 16:02:00,75.6,62.9,30.04,SW,225,0.0,3.1,65,0.00,,,0.00,WUHU21623XXSP,2013-09-04 20:02:00,
2013-09-04 16:07:00,75.7,63.1,30.04,SW,225,0.0,2.7,65,0.00,,,0.00,WUHU21623XXSP,2013-09-04 20:07:00,
2013-09-04 16:12:00,75.7,63.1,30.04,SW,225,2.9,2.9,65,0.00,,,0.00,WUHU21623XXSP,2013-09-04 20:12:00,
2013-09-04 16:17:00,75.9,63.3,30.04,SW,225,0.0,2.9,65,0.00,,,0.00,WUHU21623XXSP,2013-09-04 20:17:00,
2013-09-04 16:22:00,75.9,63.3,30.04,SSW,202,2.5,2.5,65,0.00,,,0.00,WUHU21623XXSP,2013-09-04 20:22:00,
2013-09-04 16:27:00,76.1,63.4,30.04,SW,225,0.0,2.5,65,0.00,,,0.00,WUHU21623XXSP,2013-09-04 20:27:00,
2013-09-04 16:32:00,76.3,64.1,30.04,North,0,2.0,2.0,66,0.00,,,0.00,WUHU21623XXSP,2013-09-04 20:32:00,
2013-09-04 16:37:00,76.3,64.1,30.04,SSW,202,4.7,4.7,66,0.00,,,0.00,WUHU21623XXSP,2013-09-04 20:37:00,
2013-09-04 16:42:00,76.5,64.2,30.04,North,0,0.0,4.7,66,0.00,,,0.00,WUHU21623XXSP,2013-09-04 20:42:00,
2013-09-04 16:47:00,76.6,64.4,30.04,SW,225,0.0,4.0,66,0.00,,,0.00,WUHU21623XXSP,2013-09-04 20:47:00,
2013-09-04 16:52:00,76.6,64.4,30.05,NNW,337,0.0,4.0,66,0.00,,,0.00,WUHU21623XXSP,2013-09-04 20:52:00,
2013-09-04 16:57:00,76.6,64.4,30.05,NNW,337,0.0,3.8,66,0.00,,,0.00,WUHU21623XXSP,2013-09-04 20:57:00,
2013-09-04 17:02:00,76.6,64.4,30.04,SSW,202,0.0,0.0,66,0.00,,,0.00,WUHU21623XXSP,2013-09-04 21:02:00,
2013-09-04 17:07:00,76.6,64.4,30.04,SSW,202,0.0,2.5,66,0.00,,,0.00,WUHU21623XXSP,2013-09-04 21:07:00,
2013-09-04 17:12:00,76.6,64.4,30.04,NNW,337,0.0,2.5,66,0.00,,,0.00,WUHU21623XXSP,2013-09-04 21:12:00,
2013-09-04 17:17:00,76.6,64.8,30.04,SSW,202,0.9,0.9,67,0.00,,,0.00,WUHU21623XXSP,2013-09-04 21:17:00,
2013-09-04 17:22:00,76.6,64.8,30.04,North,0,0.0,0.9,67,0.00,,,0.00,WUHU21623XXSP,2013-09-04 21:22:00,
2013-09-04 17:27:00,76.6,64.4,30.04,SSW,202,0.0,2.5,66,0.00,,,0.00,WUHU21623XXSP,2013-09-04 21:27:00,
2013-09-04 17:32:00,76.6,64.4,30.04,North,0,0.0,2.5,66,0.00,,,0.00,WUHU21623XXSP,2013-09-04 21:32:00,
2013-09-04 17:37:00,76.6,64.4,30.04,SSW,202,1.6,1.6,66,0.00,,,0.00,WUHU21623XXSP,2013-09-04 21:37:00,
2013-09-04 17:42:00,76.6,64.8,30.03,SSW,202,6.5,6.5,67,0.00,,,0.00,WUHU21623XXSP,2013-09-04 21:42:00,
2013-09-04 17:47:00,76.5,64.2,30.03,SSW,202,0.0,6.5,66,0.00,,,0.00,WUHU21623XXSP,2013-09-04 21:47:00,
2013-09-04 17:52:00,76.5,63.8,30.03,SW,225,1.8,3.8,65,0.00,,,0.00,WUHU21623XXSP,2013-09-04 21:52:00,
2013-09-04 17:57:00,76.5,63.8,30.03,SSW,202,4.0,4.0,65,0.00,,,0.00,WUHU21623XXSP,2013-09-04 21:57:00,
2013-09-04 18:02:00,76.6,63.5,30.02,SSW,202,3.4,4.0,64,0.00,,,0.00,WUHU21623XXSP,2013-09-04 22:02:00,
2013-09-04 18:07:00,76.6,64.0,30.02,SSW,202,2.9,4.0,65,0.00,,,0.00,WUHU21623XXSP,2013-09-04 22:07:00,
2013-09-04 18:12:00,76.5,63.8,30.02,SSW,202,3.4,3.4,65,0.00,,,0.00,WUHU21623XXSP,2013-09-04 22:12:00,
2013-09-04 18:17:00,76.5,63.8,30.02,SSW,202,0.0,3.8,65,0.00,,,0.00,WUHU21623XXSP,2013-09-04 22:17:00,
2013-09-04 18:22:00,76.3,63.6,30.02,SSW,202,0.0,3.8,65,0.00,,,0.00,WUHU21623XXSP,2013-09-04 22:22:00,
2013-09-04 18:27:00,76.3,63.6,30.02,SW,225,0.0,1.3,65,0.00,,,0.00,WUHU21623XXSP,2013-09-04 22:27:00,
2013-09-04 18:32:00,76.3,63.6,30.03,SSW,202,0.0,2.5,65,0.00,,,0.00,WUHU21623XXSP,2013-09-04 22:32:00,
2013-09-04 18:37:00,76.1,63.4,30.03,SW,225,0.0,4.0,65,0.00,,,0.00,WUHU21623XXSP,2013-09-04 22:37:00,
2013-09-04 18:42:00,75.9,63.3,30.03,SW,225,0.0,4.0,65,0.00,,,0.00,WUHU21623XXSP,2013-09-04 22:42:00,
2013-09-04 18:47:00,75.9,63.3,30.02,SSW,202,0.0,0.0,65,0.00,,,0.00,WUHU21623XXSP,2013-09-04 22:47:00,
2013-09-04 18:52:00,75.9,63.3,30.02,SSW,202,2.0,2.0,65,0.00,,,0.00,WUHU21623XXSP,2013-09-04 22:52:00,
2013-09-04 18:57:00,75.7,63.5,30.02,SSW,202,0.0,2.0,66,0.00,,,0.00,WUHU21623XXSP,2013-09-04 22:57:00,
2013-09-04 19:02:00,75.6,63.4,30.02,SSW,202,0.0,2.7,66,0.00,,,0.00,WUHU21623XXSP,2013-09-04 23:02:00,
2013-09-04 19:07:00,75.4,63.2,30.02,SSW,202,1.3,2.7,66,0.00,,,0.00,WUHU21623XXSP,2013-09-04 23:07:00,
2013-09-04 19:12:00,75.4,63.2,30.02,SSW,202,0.0,1.3,66,0.00,,,0.00,WUHU21623XXSP,2013-09-04 23:12:00,
2013-09-04 19:17:00,75.2,63.0,30.03,SSW,202,0.0,0.0,66,0.00,,,0.00,WUHU21623XXSP,2013-09-04 23:17:00,
2013-09-04 19:22:00,75.0,62.9,30.03,SSW,202,0.0,0.0,66,0.00,,,0.00,WUHU21623XXSP,2013-09-04 23:22:00,
2013-09-04 19:27:00,75.0,62.9,30.03,SSW,202,0.0,0.0,66,0.00,,,0.00,WUHU21623XXSP,2013-09-04 23:27:00,
2013-09-04 19:32:00,74.8,63.1,30.03,SSW,202,0.0,0.0,67,0.00,,,0.00,WUHU21623XXSP,2013-09-04 23:32:00,
2013-09-04 19:37:00,74.5,62.8,30.03,SSW,202,0.0,0.0,67,0.00,,,0.00,WUHU21623XXSP,2013-09-04 23:37:00,
2013-09-04 19:42:00,74.5,62.8,30.03,SSW,202,0.0,0.0,67,0.00,,,0.00,WUHU21623XXSP,2013-09-04 23:42:00,
2013-09-04 19:47:00,74.3,62.6,30.03,SSW,202,0.0,0.0,67,0.00,,,0.00,WUHU21623XXSP,2013-09-04 23:47:00,
2013-09-04 19:52:00,74.1,62.9,30.03,SSW,202,0.0,0.0,68,0.00,,,0.00,WUHU21623XXSP,2013-09-04 23:52:00,
2013-09-04 19:57:00,73.9,62.7,30.03,SSW,202,0.0,0.0,68,0.00,,,0.00,WUHU21623XXSP,2013-09-04 23:57:00,
2013-09-04 20:02:00,73.8,62.6,30.03,SSW,202,0.0,0.0,68,0.00,,,0.00,WUHU21623XXSP,2013-09-05 00:02:00,
2013-09-04 20:07:00,73.8,62.6,30.04,SSW,202,0.0,0.0,68,0.00,,,0.00,WUHU21623XXSP,2013-09-05 00:07:00,
2013-09-04 20:12:00,73.6,62.4,30.04,SSW,202,0.0,0.0,68,0.00,,,0.00,WUHU21623XXSP,2013-09-05 00:12:00,
2013-09-04 20:17:00,73.2,62.1,30.04,SSW,202,0.0,2.9,68,0.00,,,0.00,WUHU21623XXSP,2013-09-05 00:17:00,
2013-09-04 20:22:00,73.2,62.5,30.04,SW,225,0.0,3.4,69,0.00,,,0.00,WUHU21623XXSP,2013-09-05 00:22:00,
2013-09-04 20:27:00,73.2,62.5,30.04,SW,225,0.0,3.4,69,0.00,,,0.00,WUHU21623XXSP,2013-09-05 00:27:00,
2013-09-04 20:32:00,73.0,62.3,30.04,SSW,202,0.0,0.0,69,0.00,,,0.00,WUHU21623XXSP,2013-09-05 00:32:00,
2013-09-04 20:37:00,73.0,62.8,30.04,SSW,202,0.0,0.0,70,0.00,,,0.00,WUHU21623XXSP,2013-09-05 00:37:00,
2013-09-04 20:42:00,72.9,62.2,30.04,SW,225,0.0,0.0,69,0.00,,,0.00,WUHU21623XXSP,2013-09-05 00:42:00,
2013-09-04 20:47:00,72.7,62.4,30.05,SW,225,0.0,1.6,70,0.00,,,0.00,WUHU21623XXSP,2013-09-05 00:47:00,
2013-09-04 20:52:00,72.5,62.6,30.05,North,0,0.0,1.6,71,0.00,,,0.00,WUHU21623XXSP,2013-09-05 00:52:00,
2013-09-04 20:57:00,72.3,62.4,30.05,North,0,0.0,0.0,71,0.00,,,0.00,WUHU21623XXSP,2013-09-05 00:57:00,
2013-09-04 21:02:00,72.3,63.2,30.06,NNW,337,6.5,6.5,73,0.00,,,0.00,WUHU21623XXSP,2013-09-05 01:02:00,
2013-09-04 21:07:00,72.1,63.0,30.05,NNW,337,2.0,6.5,73,0.00,,,0.00,WUHU21623XXSP,2013-09-05 01:07:00,
2013-09-04 21:12:00,72.0,62.8,30.06,North,0,0.0,2.2,73,0.00,,,0.00,WUHU21623XXSP,2013-09-05 01:12:00,
2013-09-04 21:17:00,71.8,63.0,30.06,NNW,337,0.0,0.0,74,0.00,,,0.00,WUHU21623XXSP,2013-09-05 01:17:00,
2013-09-04 21:22:00,71.8,63.4,30.06,NNW,337,0.0,0.0,75,0.00,,,0.00,WUHU21623XXSP,2013-09-05 01:22:00,
2013-09-04 21:27:00,71.6,63.2,30.06,North,0,0.0,7.2,75,0.00,,,0.00,WUHU21623XXSP,2013-09-05 01:27:00,
2013-09-04 21:32:00,71.4,63.4,30.06,NNE,22,0.0,7.2,76,0.00,,,0.00,WUHU21623XXSP,2013-09-05 01:32:00,
2013-09-04 21:37:00,71.2,63.2,30.06,SW,225,0.0,0.0,76,0.00,,,0.00,WUHU21623XXSP,2013-09-05 01:37:00,
2013-09-04 21:42:00,71.2,63.2,30.07,NNW,337,0.0,0.2,76,0.00,,,0.00,WUHU21623XXSP,2013-09-05 01:42:00,
2013-09-04 21:47:00,70.9,62.9,30.08,North,0,2.0,2.0,76,0.00,,,0.00,WUHU21623XXSP,2013-09-05 01:47:00,
2013-09-04 21:52:00,70.9,63.3,30.08,NE,45,0.0,2.0,77,0.00,,,0.00,WUHU21623XXSP,2013-09-05 01:52:00,
2013-09-04 21:57:00,70.7,63.1,30.08,NNW,337,0.0,0.0,77,0.00,,,0.00,WUHU21623XXSP,2013-09-05 01:57:00,
2013-09-04 22:02:00,70.5,62.9,30.09,NNW,337,0.0,2.7,77,0.00,,,0.00,WUHU21623XXSP,2013-09-05 02:02:00,
2013-09-04 22:07:00,70.3,62.7,30.09,SSW,202,8.3,8.3,77,0.00,,,0.00,WUHU21623XXSP,2013-09-05 02:07:00,
2013-09-04 22:12:00,70.2,62.5,30.09,NNE,22,2.0,8.3,77,0.00,,,0.00,WUHU21623XXSP,2013-09-05 02:12:00,
2013-09-04 22:17:00,70.0,62.4,30.09,North,0,0.0,6.9,77,0.00,,,0.00,WUHU21623XXSP,2013-09-05 02:17:00,
2013-09-04 22:22:00,69.8,62.2,30.09,North,0,0.0,6.9,77,0.00,,,0.00,WUHU21623XXSP,2013-09-05 02:22:00,
2013-09-04 22:27:00,69.6,62.0,30.09,NNE,22,0.0,5.1,77,0.00,,,0.00,WUHU21623XXSP,2013-09-05 02:27:00,
2013-09-04 22:32:00,69.6,62.0,30.09,South,180,1.6,1.6,77,0.00,,,0.00,WUHU21623XXSP,2013-09-05 02:32:00,
2013-09-04 22:37:00,69.4,61.9,30.09,North,0,0.0,1.6,77,0.00,,,0.00,WUHU21623XXSP,2013-09-05 02:37:00,
2013-09-04 22:42:00,69.3,61.7,30.10,North,0,0.0,6.5,77,0.00,,,0.00,WUHU21623XXSP,2013-09-05 02:42:00,
2013-09-04 22:47:00,69.1,61.9,30.10,NNW,337,2.0,6.5,78,0.00,,,0.00,WUHU21623XXSP,2013-09-05 02:47:00,
2013-09-04 22:52:00,68.9,61.8,30.10,NNW,337,1.8,2.0,78,0.00,,,0.00,WUHU21623XXSP,2013-09-05 02:52:00,
2013-09-04 22:57:00,68.7,61.6,30.10,NNW,337,0.0,6.9,78,0.00,,,0.00,WUHU21623XXSP,2013-09-05 02:57:00,
2013-09-04 23:02:00,68.5,61.4,30.11,NNW,337,2.2,6.9,78,0.00,,,0.00,WUHU21623XXSP,2013-09-05 03:02:00,
2013-09-04 23:07:00,68.4,61.6,30.11,NNW,337,2.2,2.2,79,0.00,,,0.00,WUHU21623XXSP,2013-09-05 03:07:00,
2013-09-04 23:12:00,68.2,61.5,30.11,North,0,0.0,2.2,79,0.00,,,0.00,WUHU21623XXSP,2013-09-05 03:12:00,
2013-09-04 23:17:00,67.8,61.1,30.11,North,0,0.0,4.3,79,0.00,,,0.00,WUHU21623XXSP,2013-09-05 03:17:00,
2013-09-04 23:22:00,67.6,61.0,30.11,NNW,337,0.0,4.3,79,0.00,,,0.00,WUHU21623XXSP,2013-09-05 03:22:00,
2013-09-04 23:27:00,67.5,61.2,30.11,NNW,337,2.9,2.9,80,0.00,,,0.00,WUHU21623XXSP,2013-09-05 03:27:00,
2013-09-04 23:32:00,67.3,61.0,30.10,NNW,337,0.0,2.9,80,0.00,,,0.00,WUHU21623XXSP,2013-09-05 03:32:00,
2013-09-04 23:37:00,67.1,60.8,30.10,NNW,337,0.0,2.9,80,0.00,,,0.00,WUHU21623XXSP,2013-09-05 03:37:00,
2013-09-04 23:42:00,66.9,60.6,30.10,NNW,337,0.0,0.0,80,0.00,,,0.00,WUHU21623XXSP,2013-09-05 03:42:00,
2013-09-04 23:47:00,66.7,60.4,30.10,NNW,337,1.6,1.6,80,0.00,,,0.00,WUHU21623XXSP,2013-09-05 03:47:00,
2013-09-04 23:52:00,66.6,60.6,30.10,NNW,337,0.0,1.6,81,0.00,,,0.00,WUHU21623XXSP,2013-09-05 03:52:00,
2013-09-04 23:57:00,66.4,60.4,30.10,North,0,0.0,2.2,81,0.00,,,0.00,WUHU21623XXSP,2013-09-05 03:57:00,